Time,TemperatureF,DewpointF,PressureIn,WindDirection,WindDirectionDegrees,WindSpeedMPH,WindSpeedGustMPH,Humidity,HourlyPrecipIn,Conditions,Clouds,dailyrainin,SoftwareType,DateUTC
2013-04-15 00:04:00,61.7,23.5,29.44,SW,232,4.0,9.0,23,0.00,,,0.00,Wunderground v.1.15,2013-04-15 06:04:00,
2013-04-15 00:09:00,61.6,23.4,29.45,SW,230,4.0,9.0,23,0.00,,,0.00,Wunderground v.1.15,2013-04-15 06:09:00,
2013-04-15 00:16:00,61.6,24.4,29.44,WSW,248,7.0,8.0,24,0.00,,,0.00,Wunderground v.1.15,2013-04-15 06:16:00,
2013-04-15 00:21:00,61.5,24.3,29.44,WSW,250,2.0,4.0,24,0.00,,,0.00,Wunderground v.1.15,2013-04-15 06:21:00,
2013-04-15 00:26:00,61.3,24.2,29.44,WSW,240,3.0,5.0,24,0.00,,,0.00,Wunderground v.1.15,2013-04-15 06:26:00,
2013-04-15 00:32:00,60.9,23.8,29.44,WSW,246,6.0,6.0,24,0.00,,,0.00,Wunderground v.1.15,2013-04-15 06:32:00,
2013-04-15 00:38:00,60.9,24.8,29.44,West,263,5.0,10.0,25,0.00,,,0.00,Wunderground v.1.15,2013-04-15 06:38:00,
2013-04-15 00:43:00,60.9,24.8,29.44,WSW,246,4.0,5.0,25,0.00,,,0.00,Wunderground v.1.15,2013-04-15 06:43:00,
2013-04-15 00:49:00,60.8,24.7,29.44,West,260,5.0,9.0,25,0.00,,,0.00,Wunderground v.1.15,2013-04-15 06:49:00,
2013-04-15 00:54:00,60.7,23.7,29.44,West,269,8.0,8.0,24,0.00,,,0.00,Wunderground v.1.15,2013-04-15 06:54:00,
2013-04-15 01:01:00,60.9,23.8,29.44,WSW,248,7.0,9.0,24,0.00,,,0.00,Wunderground v.1.15,2013-04-15 07:01:00,
2013-04-15 01:41:00,59.6,23.7,29.45,SSW,213,7.0,7.0,25,0.00,,,0.00,Wunderground v.1.15,2013-04-15 07:41:00,
2013-04-15 01:42:00,59.5,23.6,29.45,SSW,211,4.0,7.0,25,0.00,,,0.00,Wunderground v.1.15,2013-04-15 07:42:00,
2013-04-15 01:43:00,59.4,23.5,29.45,SW,222,6.0,7.0,25,0.00,,,0.00,Wunderground v.1.15,2013-04-15 07:43:00,
2013-04-15 01:48:00,59.2,23.4,29.45,SSW,207,3.0,7.0,25,0.00,,,0.00,Wunderground v.1.15,2013-04-15 07:48:00,
2013-04-15 01:49:00,59.1,23.3,29.45,SW,216,4.0,7.0,25,0.00,,,0.00,Wunderground v.1.15,2013-04-15 07:49:00,
2013-04-15 01:51:00,59.0,23.2,29.45,SSW,198,4.0,5.0,25,0.00,,,0.00,Wunderground v.1.15,2013-04-15 07:51:00,
2013-04-15 01:56:00,58.6,22.8,29.46,SW,227,9.0,9.0,25,0.00,,,0.00,Wunderground v.1.15,2013-04-15 07:56:00,
2013-04-15 02:01:00,58.4,22.7,29.46,SSW,209,5.0,5.0,25,0.00,,,0.00,Wunderground v.1.15,2013-04-15 08:01:00,
2013-04-15 02:02:00,58.4,22.7,29.46,SW,222,8.0,8.0,25,0.00,,,0.00,Wunderground v.1.15,2013-04-15 08:02:00,
2013-04-15 02:07:00,58.2,22.5,29.46,SSW,207,3.0,9.0,25,0.00,,,0.00,Wunderground v.1.15,2013-04-15 08:07:00,
2013-04-15 02:12:00,58.0,22.3,29.46,SSW,192,6.0,6.0,25,0.00,,,0.00,Wunderground v.1.15,2013-04-15 08:12:00,
2013-04-15 02:17:00,57.6,22.0,29.46,SSW,197,1.0,7.0,25,0.00,,,0.00,Wunderground v.1.15,2013-04-15 08:17:00,
2013-04-15 02:22:00,57.3,21.7,29.46,SSW,194,2.0,5.0,25,0.00,,,0.00,Wunderground v.1.15,2013-04-15 08:22:00,
2013-04-15 02:27:00,57.0,21.5,29.46,South,188,3.0,6.0,25,0.00,,,0.00,Wunderground v.1.15,2013-04-15 08:27:00,
2013-04-15 02:32:00,56.9,22.3,29.46,South,188,3.0,4.0,26,0.00,,,0.00,Wunderground v.1.15,2013-04-15 08:32:00,
2013-04-15 02:35:00,56.8,22.2,29.46,SSW,196,3.0,6.0,26,0.00,,,0.00,Wunderground v.1.15,2013-04-15 08:35:00,
2013-04-15 02:40:00,56.6,22.1,29.46,SSW,192,3.0,7.0,26,0.00,,,0.00,Wunderground v.1.15,2013-04-15 08:40:00,
2013-04-15 02:41:00,56.5,22.0,29.46,SSW,200,4.0,4.0,26,0.00,,,0.00,Wunderground v.1.15,2013-04-15 08:41:00,
2013-04-15 02:47:00,56.4,21.9,29.46,South,180,3.0,6.0,26,0.00,,,0.00,Wunderground v.1.15,2013-04-15 08:47:00,
2013-04-15 02:52:00,56.2,21.7,29.46,South,180,1.0,3.0,26,0.00,,,0.00,Wunderground v.1.15,2013-04-15 08:52:00,
2013-04-15 02:57:00,55.9,22.4,29.46,SSE,164,0.0,4.0,27,0.00,,,0.00,Wunderground v.1.15,2013-04-15 08:57:00,
2013-04-15 03:02:00,55.4,21.9,29.46,SSE,163,0.0,2.0,27,0.00,,,0.00,Wunderground v.1.15,2013-04-15 09:02:00,
2013-04-15 03:07:00,54.8,22.3,29.46,SSE,164,1.0,2.0,28,0.00,,,0.00,Wunderground v.1.15,2013-04-15 09:07:00,
2013-04-15 03:12:00,54.2,22.6,29.47,SSE,163,0.0,2.0,29,0.00,,,0.00,Wunderground v.1.15,2013-04-15 09:12:00,
2013-04-15 03:17:00,53.5,22.8,29.46,SSE,164,1.0,2.0,30,0.00,,,0.00,Wunderground v.1.15,2013-04-15 09:17:00,
2013-04-15 03:22:00,53.0,22.4,29.46,SSE,164,1.0,2.0,30,0.00,,,0.00,Wunderground v.1.15,2013-04-15 09:22:00,
2013-04-15 03:27:00,52.7,22.9,29.46,SSE,164,0.0,3.0,31,0.00,,,0.00,Wunderground v.1.15,2013-04-15 09:27:00,
2013-04-15 03:32:00,52.5,22.7,29.46,SSE,163,3.0,4.0,31,0.00,,,0.00,Wunderground v.1.15,2013-04-15 09:32:00,
2013-04-15 03:37:00,52.3,22.5,29.46,SSE,164,0.0,4.0,31,0.00,,,0.00,Wunderground v.1.15,2013-04-15 09:37:00,
2013-04-15 03:42:00,52.0,23.0,29.46,SSE,164,1.0,2.0,32,0.00,,,0.00,Wunderground v.1.15,2013-04-15 09:42:00,
2013-04-15 03:47:00,51.6,22.7,29.47,SSE,164,0.0,2.0,32,0.00,,,0.00,Wunderground v.1.15,2013-04-15 09:47:00,
2013-04-15 03:52:00,51.3,22.4,29.47,SSE,163,0.0,2.0,32,0.00,,,0.00,Wunderground v.1.15,2013-04-15 09:52:00,
2013-04-15 03:58:00,51.0,22.9,29.47,SSE,164,0.0,2.0,33,0.00,,,0.00,Wunderground v.1.15,2013-04-15 09:58:00,
2013-04-15 04:03:00,50.7,22.6,29.47,SSE,164,2.0,2.0,33,0.00,,,0.00,Wunderground v.1.15,2013-04-15 10:03:00,
2013-04-15 04:08:00,50.2,22.9,29.47,WSW,256,2.0,3.0,34,0.00,,,0.00,Wunderground v.1.15,2013-04-15 10:08:00,
2013-04-15 04:13:00,50.0,23.4,29.48,WSW,255,0.0,2.0,35,0.00,,,0.00,Wunderground v.1.15,2013-04-15 10:13:00,
2013-04-15 04:18:00,49.7,23.1,29.48,WSW,255,1.0,2.0,35,0.00,,,0.00,Wunderground v.1.15,2013-04-15 10:18:00,
2013-04-15 04:23:00,49.4,23.5,29.48,WSW,255,0.0,1.0,36,0.00,,,0.00,Wunderground v.1.15,2013-04-15 10:23:00,
2013-04-15 04:28:00,49.1,23.3,29.48,WSW,256,0.0,2.0,36,0.00,,,0.00,Wunderground v.1.15,2013-04-15 10:28:00,
2013-04-15 04:33:00,48.8,23.6,29.47,WSW,255,0.0,0.0,37,0.00,,,0.00,Wunderground v.1.15,2013-04-15 10:33:00,
2013-04-15 04:38:00,48.4,23.3,29.47,WSW,255,2.0,3.0,37,0.00,,,0.00,Wunderground v.1.15,2013-04-15 10:38:00,
2013-04-15 04:43:00,48.2,23.7,29.47,WSW,256,0.0,2.0,38,0.00,,,0.00,Wunderground v.1.15,2013-04-15 10:43:00,
2013-04-15 04:48:00,48.0,23.6,29.47,WSW,256,0.0,2.0,38,0.00,,,0.00,Wunderground v.1.15,2013-04-15 10:48:00,
2013-04-15 04:53:00,47.7,23.3,29.48,WSW,256,2.0,2.0,38,0.00,,,0.00,Wunderground v.1.15,2013-04-15 10:53:00,
2013-04-15 04:58:00,47.4,23.7,29.48,WSW,253,2.0,4.0,39,0.00,,,0.00,Wunderground v.1.15,2013-04-15 10:58:00,
2013-04-15 05:03:00,47.1,23.4,29.48,SSE,162,3.0,6.0,39,0.00,,,0.00,Wunderground v.1.15,2013-04-15 11:03:00,
2013-04-15 05:08:00,47.1,23.4,29.48,SE,146,0.0,6.0,39,0.00,,,0.00,Wunderground v.1.15,2013-04-15 11:08:00,
2013-04-15 05:13:00,47.4,23.0,29.48,SE,146,0.0,2.0,38,0.00,,,0.00,Wunderground v.1.15,2013-04-15 11:13:00,
2013-04-15 05:18:00,47.3,23.6,29.48,SE,146,0.0,2.0,39,0.00,,,0.00,Wunderground v.1.15,2013-04-15 11:18:00,
2013-04-15 05:23:00,47.1,23.4,29.48,SE,146,0.0,1.0,39,0.00,,,0.00,Wunderground v.1.15,2013-04-15 11:23:00,
2013-04-15 05:28:00,47.0,23.3,29.49,SE,146,0.0,1.0,39,0.00,,,0.00,Wunderground v.1.15,2013-04-15 11:28:00,
2013-04-15 05:33:00,46.8,23.1,29.49,SE,146,0.0,0.0,39,0.00,,,0.00,Wunderground v.1.15,2013-04-15 11:33:00,
2013-04-15 05:39:00,46.6,22.9,29.49,SSW,205,1.0,3.0,39,0.00,,,0.00,Wunderground v.1.15,2013-04-15 11:39:00,
2013-04-15 05:44:00,46.4,22.8,29.49,SSW,205,3.0,4.0,39,0.00,,,0.00,Wunderground v.1.15,2013-04-15 11:44:00,
2013-04-15 05:49:00,46.2,23.2,29.49,SW,215,0.0,4.0,40,0.00,,,0.00,Wunderground v.1.15,2013-04-15 11:49:00,
2013-04-15 05:54:00,46.0,23.0,29.49,SW,214,1.0,2.0,40,0.00,,,0.00,Wunderground v.1.15,2013-04-15 11:54:00,
2013-04-15 05:59:00,45.8,22.8,29.49,SW,214,0.0,2.0,40,0.00,,,0.00,Wunderground v.1.15,2013-04-15 11:59:00,
2013-04-15 06:04:00,45.6,23.8,29.49,SW,214,0.0,1.0,42,0.00,,,0.00,Wunderground v.1.15,2013-04-15 12:04:00,
2013-04-15 06:09:00,45.4,23.6,29.50,SW,214,0.0,2.0,42,0.00,,,0.00,Wunderground v.1.15,2013-04-15 12:09:00,
2013-04-15 06:14:00,45.1,23.3,29.50,SW,215,1.0,1.0,42,0.00,,,0.00,Wunderground v.1.15,2013-04-15 12:14:00,
2013-04-15 06:19:00,44.9,23.7,29.50,SW,215,2.0,2.0,43,0.00,,,0.00,Wunderground v.1.15,2013-04-15 12:19:00,
2013-04-15 06:24:00,44.7,23.5,29.51,SW,215,2.0,2.0,43,0.00,,,0.00,Wunderground v.1.15,2013-04-15 12:24:00,
2013-04-15 06:29:00,44.4,23.3,29.51,SW,215,1.0,2.0,43,0.00,,,0.00,Wunderground v.1.15,2013-04-15 12:29:00,
2013-04-15 06:34:00,44.2,23.6,29.51,SW,215,2.0,2.0,44,0.00,,,0.00,Wunderground v.1.15,2013-04-15 12:34:00,
2013-04-15 06:40:00,44.0,24.0,29.51,SW,214,0.0,2.0,45,0.00,,,0.00,Wunderground v.1.15,2013-04-15 12:40:00,
2013-04-15 06:45:00,43.8,23.3,29.51,SW,214,0.0,1.0,44,0.00,,,0.00,Wunderground v.1.15,2013-04-15 12:45:00,
2013-04-15 06:50:00,43.8,23.8,29.52,SW,215,0.0,0.0,45,0.00,,,0.00,Wunderground v.1.15,2013-04-15 12:50:00,
2013-04-15 06:56:00,43.8,23.3,29.52,SW,215,0.0,1.0,44,0.00,,,0.00,Wunderground v.1.15,2013-04-15 12:56:00,
2013-04-15 07:02:00,43.8,23.8,29.52,SW,215,3.0,3.0,45,0.00,,,0.00,Wunderground v.1.15,2013-04-15 13:02:00,
2013-04-15 07:07:00,43.8,23.8,29.53,SW,215,2.0,3.0,45,0.00,,,0.00,Wunderground v.1.15,2013-04-15 13:07:00,
2013-04-15 07:13:00,44.3,24.3,29.53,SW,214,2.0,2.0,45,0.00,,,0.00,Wunderground v.1.15,2013-04-15 13:13:00,
2013-04-15 07:19:00,45.7,24.5,29.53,SW,215,1.0,2.0,43,0.00,,,0.00,Wunderground v.1.15,2013-04-15 13:19:00,
2013-04-15 07:24:00,47.1,24.6,29.53,SW,214,3.0,3.0,41,0.00,,,0.00,Wunderground v.1.15,2013-04-15 13:24:00,
2013-04-15 07:29:00,48.5,24.0,29.53,SW,214,3.0,3.0,38,0.00,,,0.00,Wunderground v.1.15,2013-04-15 13:29:00,
2013-04-15 07:34:00,50.1,23.5,29.53,SSE,167,3.0,6.0,35,0.00,,,0.00,Wunderground v.1.15,2013-04-15 13:34:00,
2013-04-15 07:39:00,51.5,23.3,29.54,SSE,151,2.0,6.0,33,0.00,,,0.00,Wunderground v.1.15,2013-04-15 13:39:00,
2013-04-15 07:44:00,52.7,23.6,29.54,SE,144,4.0,7.0,32,0.00,,,0.00,Wunderground v.1.15,2013-04-15 13:44:00,
2013-04-15 07:49:00,53.7,23.0,29.54,ESE,123,3.0,8.0,30,0.00,,,0.00,Wunderground v.1.15,2013-04-15 13:49:00,
2013-04-15 07:54:00,54.4,23.6,29.54,SE,135,3.0,6.0,30,0.00,,,0.00,Wunderground v.1.15,2013-04-15 13:54:00,
2013-04-15 07:59:00,55.1,23.4,29.56,SE,143,4.0,7.0,29,0.00,,,0.00,Wunderground v.1.15,2013-04-15 13:59:00,
2013-04-15 08:04:00,55.7,23.1,29.57,SE,142,4.0,6.0,28,0.00,,,0.00,Wunderground v.1.15,2013-04-15 14:04:00,
2013-04-15 08:09:00,56.4,22.8,29.57,SSE,155,4.0,7.0,27,0.00,,,0.00,Wunderground v.1.15,2013-04-15 14:09:00,
2013-04-15 08:14:00,57.0,23.3,29.57,SSE,159,4.0,6.0,27,0.00,,,0.00,Wunderground v.1.15,2013-04-15 14:14:00,
2013-04-15 08:19:00,57.4,22.8,29.57,SSE,160,5.0,8.0,26,0.00,,,0.00,Wunderground v.1.15,2013-04-15 14:19:00,
2013-04-15 08:24:00,57.7,23.0,29.57,SSE,167,5.0,8.0,26,0.00,,,0.00,Wunderground v.1.15,2013-04-15 14:24:00,
2013-04-15 08:29:00,58.3,23.5,29.57,SSW,195,8.0,9.0,26,0.00,,,0.00,Wunderground v.1.15,2013-04-15 14:29:00,
2013-04-15 08:34:00,58.7,23.9,29.57,South,181,7.0,9.0,26,0.00,,,0.00,Wunderground v.1.15,2013-04-15 14:34:00,
2013-04-15 08:39:00,59.1,23.3,29.57,SSW,197,3.0,9.0,25,0.00,,,0.00,Wunderground v.1.15,2013-04-15 14:39:00,
2013-04-15 08:44:00,59.8,23.9,29.57,SSW,208,6.0,8.0,25,0.00,,,0.00,Wunderground v.1.15,2013-04-15 14:44:00,
2013-04-15 08:49:00,60.1,23.1,29.56,SSW,197,7.0,10.0,24,0.00,,,0.00,Wunderground v.1.15,2013-04-15 14:49:00,
2013-04-15 08:54:00,60.6,23.6,29.56,South,190,4.0,8.0,24,0.00,,,0.00,Wunderground v.1.15,2013-04-15 14:54:00,
2013-04-15 08:59:00,61.2,24.1,29.56,SSW,192,6.0,9.0,24,0.00,,,0.00,Wunderground v.1.15,2013-04-15 14:59:00,
2013-04-15 09:04:00,61.6,23.4,29.56,SW,225,3.0,7.0,23,0.00,,,0.00,Wunderground v.1.15,2013-04-15 15:04:00,
2013-04-15 09:09:00,61.7,22.4,29.56,SSE,167,3.0,7.0,22,0.00,,,0.00,Wunderground v.1.15,2013-04-15 15:09:00,
2013-04-15 09:15:00,61.8,23.6,29.56,SSW,213,2.0,7.0,23,0.00,,,0.00,Wunderground v.1.15,2013-04-15 15:15:00,
2013-04-15 09:20:00,61.9,22.6,29.56,South,185,4.0,7.0,22,0.00,,,0.00,Wunderground v.1.15,2013-04-15 15:20:00,
2013-04-15 09:25:00,62.2,23.9,29.56,West,277,4.0,5.0,23,0.00,,,0.00,Wunderground v.1.15,2013-04-15 15:25:00,
2013-04-15 09:31:00,62.7,24.3,29.56,SSE,167,4.0,10.0,23,0.00,,,0.00,Wunderground v.1.15,2013-04-15 15:31:00,
2013-04-15 09:37:00,63.3,23.8,29.56,SW,220,7.0,10.0,22,0.00,,,0.00,Wunderground v.1.15,2013-04-15 15:37:00,
2013-04-15 09:42:00,63.8,24.2,29.55,SSW,210,4.0,8.0,22,0.00,,,0.00,Wunderground v.1.15,2013-04-15 15:42:00,
2013-04-15 09:47:00,63.8,24.2,29.55,South,178,5.0,9.0,22,0.00,,,0.00,Wunderground v.1.15,2013-04-15 15:47:00,
2013-04-15 09:52:00,64.2,24.5,29.55,South,189,7.0,7.0,22,0.00,,,0.00,Wunderground v.1.15,2013-04-15 15:52:00,
2013-04-15 09:57:00,64.5,24.8,29.55,SSW,196,7.0,7.0,22,0.00,,,0.00,Wunderground v.1.15,2013-04-15 15:57:00,
2013-04-15 10:02:00,65.0,25.2,29.55,South,174,3.0,6.0,22,0.00,,,0.00,Wunderground v.1.15,2013-04-15 16:02:00,
2013-04-15 10:07:00,64.9,24.0,29.55,SE,142,6.0,7.0,21,0.00,,,0.00,Wunderground v.1.15,2013-04-15 16:07:00,
2013-04-15 10:13:00,65.0,25.2,29.56,SSW,192,8.0,9.0,22,0.00,,,0.00,Wunderground v.1.15,2013-04-15 16:13:00,
2013-04-15 10:18:00,66.0,24.9,29.56,SSE,153,12.0,13.0,21,0.00,,,0.00,Wunderground v.1.15,2013-04-15 16:18:00,
2013-04-15 10:23:00,65.7,24.7,29.56,SSE,163,9.0,12.0,21,0.00,,,0.00,Wunderground v.1.15,2013-04-15 16:23:00,
2013-04-15 10:28:00,65.7,24.7,29.56,SSE,164,11.0,15.0,21,0.00,,,0.00,Wunderground v.1.15,2013-04-15 16:28:00,
2013-04-15 10:33:00,66.1,25.0,29.56,SSW,198,5.0,11.0,21,0.00,,,0.00,Wunderground v.1.15,2013-04-15 16:33:00,
2013-04-15 10:38:00,66.6,24.2,29.55,SSE,159,7.0,15.0,20,0.00,,,0.00,Wunderground v.1.15,2013-04-15 16:38:00,
2013-04-15 10:44:00,66.0,23.7,29.55,South,181,10.0,17.0,20,0.00,,,0.00,Wunderground v.1.15,2013-04-15 16:44:00,
2013-04-15 10:49:00,66.3,24.0,29.55,SSW,208,8.0,17.0,20,0.00,,,0.00,Wunderground v.1.15,2013-04-15 16:49:00,
2013-04-15 10:54:00,66.6,24.2,29.55,SSW,192,13.0,16.0,20,0.00,,,0.00,Wunderground v.1.15,2013-04-15 16:54:00,
2013-04-15 10:59:00,67.2,24.7,29.55,SW,234,12.0,17.0,20,0.00,,,0.00,Wunderground v.1.15,2013-04-15 16:59:00,
2013-04-15 11:04:00,67.7,23.9,29.55,SSE,155,10.0,15.0,19,0.00,,,0.00,Wunderground v.1.15,2013-04-15 17:04:00,
2013-04-15 11:09:00,67.7,23.9,29.55,SSE,161,7.0,18.0,19,0.00,,,0.00,Wunderground v.1.15,2013-04-15 17:09:00,
2013-04-15 11:14:00,67.9,22.8,29.55,South,174,11.0,19.0,18,0.00,,,0.00,Wunderground v.1.15,2013-04-15 17:14:00,
2013-04-15 11:19:00,68.0,22.9,29.54,South,182,9.0,22.0,18,0.00,,,0.00,Wunderground v.1.15,2013-04-15 17:19:00,
2013-04-15 11:21:00,68.2,21.7,29.55,South,186,19.0,19.0,17,0.00,,,0.00,Wunderground v.1.15,2013-04-15 17:21:00,
2013-04-15 11:25:00,68.6,22.0,29.54,SW,234,8.0,19.0,17,0.00,,,0.00,Wunderground v.1.15,2013-04-15 17:25:00,
2013-04-15 11:30:00,69.4,22.7,29.54,SW,223,8.0,19.0,17,0.00,,,0.00,Wunderground v.1.15,2013-04-15 17:30:00,
2013-04-15 11:35:00,69.6,24.2,29.54,SW,221,12.0,18.0,18,0.00,,,0.00,Wunderground v.1.15,2013-04-15 17:35:00,
2013-04-15 11:40:00,69.5,24.1,29.54,SW,217,10.0,19.0,18,0.00,,,0.00,Wunderground v.1.15,2013-04-15 17:40:00,
2013-04-15 11:45:00,69.3,23.9,29.54,SSW,205,6.0,13.0,18,0.00,,,0.00,Wunderground v.1.15,2013-04-15 17:45:00,
2013-04-15 11:50:00,69.2,23.9,29.53,SW,218,5.0,7.0,18,0.00,,,0.00,Wunderground v.1.15,2013-04-15 17:50:00,
2013-04-15 11:55:00,69.7,22.9,29.53,SSE,167,10.0,16.0,17,0.00,,,0.00,Wunderground v.1.15,2013-04-15 17:55:00,
2013-04-15 12:00:00,70.7,22.3,29.53,SW,229,11.0,11.0,16,0.00,,,0.00,Wunderground v.1.15,2013-04-15 18:00:00,
2013-04-15 12:05:00,71.0,22.5,29.52,SSW,203,10.0,21.0,16,0.00,,,0.00,Wunderground v.1.15,2013-04-15 18:05:00,
2013-04-15 12:11:00,71.8,21.6,29.54,SSW,207,7.0,10.0,15,0.00,,,0.00,Wunderground v.1.15,2013-04-15 18:11:00,
2013-04-15 12:17:00,71.7,21.5,29.53,SW,236,3.0,10.0,15,0.00,,,0.00,Wunderground v.1.15,2013-04-15 18:17:00,
2013-04-15 12:22:00,72.0,23.3,29.53,South,185,12.0,12.0,16,0.00,,,0.00,Wunderground v.1.15,2013-04-15 18:22:00,
2013-04-15 12:27:00,72.2,21.9,29.53,SSE,156,5.0,15.0,15,0.00,,,0.00,Wunderground v.1.15,2013-04-15 18:27:00,
2013-04-15 12:29:00,72.3,22.0,29.52,SE,145,6.0,15.0,15,0.00,,,0.00,Wunderground v.1.15,2013-04-15 18:29:00,
2013-04-15 12:34:00,72.3,22.0,29.52,South,187,10.0,17.0,15,0.00,,,0.00,Wunderground v.1.15,2013-04-15 18:34:00,
2013-04-15 12:39:00,71.6,21.5,29.52,SW,225,4.0,17.0,15,0.00,,,0.00,Wunderground v.1.15,2013-04-15 18:39:00,
2013-04-15 12:44:00,71.6,21.5,29.51,South,173,14.0,16.0,15,0.00,,,0.00,Wunderground v.1.15,2013-04-15 18:44:00,
2013-04-15 12:49:00,72.2,21.9,29.51,SW,225,6.0,16.0,15,0.00,,,0.00,Wunderground v.1.15,2013-04-15 18:49:00,
2013-04-15 12:54:00,72.9,20.9,29.51,SW,220,6.0,16.0,14,0.00,,,0.00,Wunderground v.1.15,2013-04-15 18:54:00,
2013-04-15 12:59:00,73.6,21.4,29.50,WSW,251,8.0,16.0,14,0.00,,,0.00,Wunderground v.1.15,2013-04-15 18:59:00,
2013-04-15 13:04:00,73.8,21.6,29.50,South,175,4.0,20.0,14,0.00,,,0.00,Wunderground v.1.15,2013-04-15 19:04:00,
2013-04-15 13:11:00,73.7,21.5,29.51,South,183,7.0,7.0,14,0.00,,,0.00,Wunderground v.1.15,2013-04-15 19:11:00,
2013-04-15 13:16:00,73.7,19.8,29.51,SSE,149,3.0,22.0,13,0.00,,,0.00,Wunderground v.1.15,2013-04-15 19:16:00,
2013-04-15 13:22:00,73.8,21.6,29.51,South,184,8.0,8.0,14,0.00,,,0.00,Wunderground v.1.15,2013-04-15 19:22:00,
2013-04-15 13:27:00,73.9,19.9,29.50,South,173,12.0,12.0,13,0.00,,,0.00,Wunderground v.1.15,2013-04-15 19:27:00,
2013-04-15 13:33:00,74.8,18.7,29.50,WSW,249,7.0,13.0,12,0.00,,,0.00,Wunderground v.1.15,2013-04-15 19:33:00,
2013-04-15 13:38:00,75.0,19.0,29.50,WSW,257,12.0,21.0,12,0.00,,,0.00,weatherlink.com 1.10,2013-04-15 19:38:00,
2013-04-15 13:44:00,75.4,19.2,29.49,South,170,7.0,14.0,12,0.00,,,0.00,Wunderground v.1.15,2013-04-15 19:44:00,
2013-04-15 13:49:00,75.8,17.5,29.48,SSE,151,6.0,14.0,11,0.00,,,0.00,Wunderground v.1.15,2013-04-15 19:49:00,
2013-04-15 13:56:00,75.9,19.6,29.48,SW,215,14.0,16.0,12,0.00,,,0.00,Wunderground v.1.15,2013-04-15 19:56:00,
2013-04-15 13:57:00,76.2,17.8,29.48,South,169,13.0,16.0,11,0.00,,,0.00,Wunderground v.1.15,2013-04-15 19:57:00,
2013-04-15 13:58:00,76.3,17.9,29.48,SSW,192,12.0,16.0,11,0.00,,,0.00,Wunderground v.1.15,2013-04-15 19:58:00,
2013-04-15 14:01:00,76.7,18.2,29.47,South,175,9.0,11.0,11,0.00,,,0.00,Wunderground v.1.15,2013-04-15 20:01:00,
2013-04-15 14:02:00,76.7,16.0,29.47,SSW,199,6.0,11.0,10,0.00,,,0.00,Wunderground v.1.15,2013-04-15 20:02:00,
2013-04-15 14:07:00,76.8,18.3,29.47,SSW,209,7.0,11.0,11,0.00,,,0.00,Wunderground v.1.15,2013-04-15 20:07:00,
2013-04-15 14:12:00,77.2,16.4,29.47,SSW,197,4.0,11.0,10,0.00,,,0.00,Wunderground v.1.15,2013-04-15 20:12:00,
2013-04-15 14:17:00,77.5,16.6,29.46,WSW,240,8.0,12.0,10,0.00,,,0.00,Wunderground v.1.15,2013-04-15 20:17:00,
2013-04-15 14:22:00,78.4,14.8,29.46,WSW,243,8.0,18.0,9,0.00,,,0.00,Wunderground v.1.15,2013-04-15 20:22:00,
2013-04-15 14:28:00,78.6,15.0,29.45,SW,221,15.0,21.0,9,0.00,,,0.00,Wunderground v.1.15,2013-04-15 20:28:00,
2013-04-15 14:33:00,79.4,12.9,29.45,SSW,210,7.0,11.0,8,0.00,,,0.00,Wunderground v.1.15,2013-04-15 20:33:00,
2013-04-15 14:38:00,80.5,13.7,29.44,South,190,18.0,24.0,8,0.00,,,0.00,Wunderground v.1.15,2013-04-15 20:38:00,
2013-04-15 14:43:00,80.9,11.0,29.44,SSW,209,15.0,22.0,7,0.00,,,0.00,Wunderground v.1.15,2013-04-15 20:43:00,
2013-04-15 14:48:00,81.0,11.1,29.44,SSW,198,13.0,22.0,7,0.00,,,0.00,Wunderground v.1.15,2013-04-15 20:48:00,
2013-04-15 14:53:00,81.2,11.2,29.44,SSE,161,10.0,22.0,7,0.00,,,0.00,Wunderground v.1.15,2013-04-15 20:53:00,
2013-04-15 14:58:00,81.4,11.4,29.43,SW,223,10.0,28.0,7,0.00,,,0.00,Wunderground v.1.15,2013-04-15 20:58:00,
2013-04-15 15:03:00,81.7,11.6,29.44,SW,227,17.0,18.0,7,0.00,,,0.00,Wunderground v.1.15,2013-04-15 21:03:00,
2013-04-15 15:08:00,81.7,8.1,29.43,WSW,252,15.0,24.0,6,0.00,,,0.00,Wunderground v.1.15,2013-04-15 21:08:00,
2013-04-15 15:13:00,81.9,8.3,29.43,South,169,18.0,23.0,6,0.00,,,0.00,Wunderground v.1.15,2013-04-15 21:13:00,
2013-04-15 15:18:00,81.8,11.7,29.43,SW,217,9.0,28.0,7,0.00,,,0.00,Wunderground v.1.15,2013-04-15 21:18:00,
2013-04-15 15:23:00,82.0,8.3,29.42,SSW,209,9.0,21.0,6,0.00,,,0.00,Wunderground v.1.15,2013-04-15 21:23:00,
2013-04-15 15:28:00,82.1,8.4,29.41,SSW,205,10.0,21.0,6,0.00,,,0.00,Wunderground v.1.15,2013-04-15 21:28:00,
2013-04-15 15:33:00,82.2,4.5,29.41,WSW,253,14.0,23.0,5,0.00,,,0.00,Wunderground v.1.15,2013-04-15 21:33:00,
2013-04-15 15:38:00,82.5,4.7,29.41,SSW,209,14.0,25.0,5,0.00,,,0.00,Wunderground v.1.15,2013-04-15 21:38:00,
2013-04-15 15:43:00,82.3,4.5,29.41,SW,224,15.0,24.0,5,0.00,,,0.00,Wunderground v.1.15,2013-04-15 21:43:00,
2013-04-15 15:48:00,82.9,5.0,29.41,WSW,240,9.0,24.0,5,0.00,,,0.00,Wunderground v.1.15,2013-04-15 21:48:00,
2013-04-15 15:53:00,82.9,5.0,29.40,WSW,249,13.0,17.0,5,0.00,,,0.00,Wunderground v.1.15,2013-04-15 21:53:00,
2013-04-15 15:58:00,82.8,4.9,29.40,West,268,15.0,19.0,5,0.00,,,0.00,Wunderground v.1.15,2013-04-15 21:58:00,
2013-04-15 16:03:00,82.5,4.7,29.39,West,266,15.0,24.0,5,0.00,,,0.00,Wunderground v.1.15,2013-04-15 22:03:00,
2013-04-15 16:08:00,82.9,5.0,29.39,WSW,240,10.0,24.0,5,0.00,,,0.00,Wunderground v.1.15,2013-04-15 22:08:00,
2013-04-15 16:13:00,83.0,5.0,29.39,WSW,238,12.0,20.0,5,0.00,,,0.00,Wunderground v.1.15,2013-04-15 22:13:00,
2013-04-15 16:18:00,83.1,5.1,29.39,SSW,196,8.0,20.0,5,0.00,,,0.00,Wunderground v.1.15,2013-04-15 22:18:00,
2013-04-15 16:23:00,83.9,5.7,29.40,SW,227,22.0,26.0,5,0.00,,,0.00,Wunderground v.1.15,2013-04-15 22:23:00,
2013-04-15 16:28:00,83.2,5.2,29.39,WSW,238,11.0,26.0,5,0.00,,,0.00,Wunderground v.1.15,2013-04-15 22:28:00,
2013-04-15 16:34:00,82.7,8.9,29.39,West,281,11.0,28.0,6,0.00,,,0.00,Wunderground v.1.15,2013-04-15 22:34:00,
2013-04-15 16:39:00,82.7,4.8,29.39,West,261,17.0,28.0,5,0.00,,,0.00,Wunderground v.1.15,2013-04-15 22:39:00,
2013-04-15 16:44:00,82.3,4.5,29.39,West,259,27.0,31.0,5,0.00,,,0.00,Wunderground v.1.15,2013-04-15 22:44:00,
2013-04-15 16:49:00,81.9,4.3,29.40,WSW,245,23.0,31.0,5,0.00,,,0.00,Wunderground v.1.15,2013-04-15 22:49:00,
2013-04-15 16:54:00,82.0,8.3,29.40,West,275,16.0,25.0,6,0.00,,,0.00,Wunderground v.1.15,2013-04-15 22:54:00,
2013-04-15 16:59:00,81.6,8.1,29.40,WSW,239,15.0,25.0,6,0.00,,,0.00,Wunderground v.1.15,2013-04-15 22:59:00,
2013-04-15 17:04:00,81.2,7.8,29.40,West,280,16.0,29.0,6,0.00,,,0.00,Wunderground v.1.15,2013-04-15 23:04:00,
2013-04-15 17:09:00,80.9,7.6,29.40,WSW,258,19.0,31.0,6,0.00,,,0.00,Wunderground v.1.15,2013-04-15 23:09:00,
2013-04-15 17:14:00,80.6,7.3,29.40,WNW,283,24.0,32.0,6,0.00,,,0.00,Wunderground v.1.15,2013-04-15 23:14:00,
2013-04-15 17:19:00,80.6,10.8,29.41,West,273,11.0,32.0,7,0.00,,,0.00,Wunderground v.1.15,2013-04-15 23:19:00,
2013-04-15 17:24:00,80.7,7.4,29.41,West,267,14.0,27.0,6,0.00,,,0.00,Wunderground v.1.15,2013-04-15 23:24:00,
2013-04-15 17:29:00,80.4,7.2,29.41,West,272,20.0,27.0,6,0.00,,,0.00,Wunderground v.1.15,2013-04-15 23:29:00,
2013-04-15 17:34:00,80.5,7.3,29.41,WSW,256,19.0,20.0,6,0.00,,,0.00,Wunderground v.1.15,2013-04-15 23:34:00,
2013-04-15 17:39:00,80.4,7.2,29.42,West,279,19.0,29.0,6,0.00,,,0.00,Wunderground v.1.15,2013-04-15 23:39:00,
2013-04-15 17:44:00,79.9,6.8,29.41,West,269,15.0,23.0,6,0.00,,,0.00,Wunderground v.1.15,2013-04-15 23:44:00,
2013-04-15 17:49:00,80.0,10.3,29.42,WNW,284,18.0,24.0,7,0.00,,,0.00,Wunderground v.1.15,2013-04-15 23:49:00,
2013-04-15 17:54:00,79.4,9.9,29.42,West,261,20.0,27.0,7,0.00,,,0.00,Wunderground v.1.15,2013-04-15 23:54:00,
2013-04-15 17:59:00,79.0,9.6,29.42,WNW,288,22.0,27.0,7,0.00,,,0.00,Wunderground v.1.15,2013-04-15 23:59:00,
2013-04-15 18:04:00,78.7,9.4,29.42,WSW,249,21.0,32.0,7,0.00,,,0.00,Wunderground v.1.15,2013-04-16 00:04:00,
2013-04-15 18:09:00,78.7,9.4,29.42,WNW,303,15.0,32.0,7,0.00,,,0.00,Wunderground v.1.15,2013-04-16 00:09:00,
2013-04-15 18:14:00,78.6,9.3,29.42,West,280,9.0,35.0,7,0.00,,,0.00,Wunderground v.1.15,2013-04-16 00:14:00,
2013-04-15 18:20:00,78.7,9.4,29.43,West,263,4.0,35.0,7,0.00,,,0.00,Wunderground v.1.15,2013-04-16 00:20:00,
2013-04-15 18:25:00,78.6,9.3,29.44,WSW,255,14.0,21.0,7,0.00,,,0.00,Wunderground v.1.15,2013-04-16 00:25:00,
2013-04-15 18:30:00,77.6,11.6,29.44,WNW,285,15.0,27.0,8,0.00,,,0.00,Wunderground v.1.15,2013-04-16 00:30:00,
2013-04-15 18:35:00,77.0,11.1,29.44,West,261,12.0,35.0,8,0.00,,,0.00,Wunderground v.1.15,2013-04-16 00:35:00,
2013-04-15 18:40:00,76.7,10.9,29.44,West,259,18.0,35.0,8,0.00,,,0.00,Wunderground v.1.15,2013-04-16 00:40:00,
2013-04-15 18:45:00,76.3,10.6,29.45,West,269,11.0,24.0,8,0.00,,,0.00,Wunderground v.1.15,2013-04-16 00:45:00,
2013-04-15 18:50:00,76.2,10.5,29.45,West,263,18.0,27.0,8,0.00,,,0.00,Wunderground v.1.15,2013-04-16 00:50:00,
2013-04-15 18:55:00,75.9,10.3,29.45,West,265,16.0,24.0,8,0.00,,,0.00,Wunderground v.1.15,2013-04-16 00:55:00,
2013-04-15 19:00:00,75.6,10.1,29.45,West,263,24.0,31.0,8,0.00,,,0.00,Wunderground v.1.15,2013-04-16 01:00:00,
2013-04-15 19:05:00,75.3,9.9,29.45,West,263,24.0,27.0,8,0.00,,,0.00,Wunderground v.1.15,2013-04-16 01:05:00,
2013-04-15 19:10:00,74.9,9.6,29.46,West,265,16.0,27.0,8,0.00,,,0.00,Wunderground v.1.15,2013-04-16 01:10:00,
2013-04-15 19:15:00,74.4,11.8,29.47,West,270,15.0,27.0,9,0.00,,,0.00,Wunderground v.1.15,2013-04-16 01:15:00,
2013-04-15 19:20:00,74.0,11.5,29.47,WSW,245,25.0,27.0,9,0.00,,,0.00,Wunderground v.1.15,2013-04-16 01:20:00,
2013-04-15 19:25:00,73.7,11.3,29.47,West,273,16.0,24.0,9,0.00,,,0.00,Wunderground v.1.15,2013-04-16 01:25:00,
2013-04-15 19:30:00,73.3,11.0,29.47,WNW,283,21.0,21.0,9,0.00,,,0.00,Wunderground v.1.15,2013-04-16 01:30:00,
2013-04-15 19:35:00,72.9,10.7,29.48,West,265,15.0,23.0,9,0.00,,,0.00,Wunderground v.1.15,2013-04-16 01:35:00,
2013-04-15 19:40:00,72.5,10.4,29.48,WSW,257,14.0,14.0,9,0.00,,,0.00,Wunderground v.1.15,2013-04-16 01:40:00,
2013-04-15 19:45:00,72.2,10.2,29.48,West,269,7.0,25.0,9,0.00,,,0.00,Wunderground v.1.15,2013-04-16 01:45:00,
2013-04-15 19:50:00,71.9,12.3,29.48,West,272,12.0,14.0,10,0.00,,,0.00,Wunderground v.1.15,2013-04-16 01:50:00,
2013-04-15 19:55:00,71.7,12.2,29.49,WNW,289,7.0,21.0,10,0.00,,,0.00,Wunderground v.1.15,2013-04-16 01:55:00,
2013-04-15 20:00:00,71.4,11.9,29.49,WNW,288,12.0,12.0,10,0.00,,,0.00,Wunderground v.1.15,2013-04-16 02:00:00,
2013-04-15 20:05:00,71.2,11.8,29.50,West,270,11.0,18.0,10,0.00,,,0.00,Wunderground v.1.15,2013-04-16 02:05:00,
2013-04-15 20:11:00,70.9,11.5,29.50,WNW,282,17.0,17.0,10,0.00,,,0.00,Wunderground v.1.15,2013-04-16 02:11:00,
2013-04-15 20:16:00,70.6,11.3,29.51,WSW,249,8.0,19.0,10,0.00,,,0.00,Wunderground v.1.15,2013-04-16 02:16:00,
2013-04-15 20:21:00,70.3,11.1,29.51,West,268,6.0,16.0,10,0.00,,,0.00,Wunderground v.1.15,2013-04-16 02:21:00,
2013-04-15 20:26:00,70.0,10.9,29.51,West,265,10.0,16.0,10,0.00,,,0.00,Wunderground v.1.15,2013-04-16 02:26:00,
2013-04-15 20:31:00,69.8,10.7,29.51,WSW,244,5.0,9.0,10,0.00,,,0.00,Wunderground v.1.15,2013-04-16 02:31:00,
2013-04-15 20:36:00,69.5,10.5,29.52,West,267,8.0,17.0,10,0.00,,,0.00,Wunderground v.1.15,2013-04-16 02:36:00,
2013-04-15 20:42:00,69.3,12.5,29.52,West,264,6.0,11.0,11,0.00,,,0.00,Wunderground v.1.15,2013-04-16 02:42:00,
2013-04-15 20:47:00,69.1,12.3,29.53,WNW,297,5.0,11.0,11,0.00,,,0.00,Wunderground v.1.15,2013-04-16 02:47:00,
2013-04-15 20:52:00,68.9,12.2,29.53,West,265,6.0,9.0,11,0.00,,,0.00,Wunderground v.1.15,2013-04-16 02:52:00,
2013-04-15 20:57:00,68.7,14.0,29.53,West,272,9.0,12.0,12,0.00,,,0.00,Wunderground v.1.15,2013-04-16 02:57:00,
2013-04-15 21:02:00,68.5,13.8,29.54,West,264,8.0,9.0,12,0.00,,,0.00,Wunderground v.1.15,2013-04-16 03:02:00,
2013-04-15 21:07:00,68.2,13.6,29.54,West,279,5.0,11.0,12,0.00,,,0.00,Wunderground v.1.15,2013-04-16 03:07:00,
2013-04-15 21:12:00,68.0,13.4,29.54,West,272,2.0,7.0,12,0.00,,,0.00,Wunderground v.1.15,2013-04-16 03:12:00,
2013-04-15 21:17:00,67.7,13.2,29.55,WNW,288,4.0,7.0,12,0.00,,,0.00,Wunderground v.1.15,2013-04-16 03:17:00,
2013-04-15 21:22:00,67.3,14.7,29.55,West,273,4.0,6.0,13,0.00,,,0.00,Wunderground v.1.15,2013-04-16 03:22:00,
2013-04-15 21:27:00,67.0,14.5,29.55,West,273,5.0,9.0,13,0.00,,,0.00,Wunderground v.1.15,2013-04-16 03:27:00,
2013-04-15 21:32:00,66.7,14.2,29.55,West,269,2.0,5.0,13,0.00,,,0.00,Wunderground v.1.15,2013-04-16 03:32:00,
2013-04-15 21:37:00,66.3,15.6,29.56,West,269,2.0,5.0,14,0.00,,,0.00,Wunderground v.1.15,2013-04-16 03:37:00,
2013-04-15 21:42:00,65.9,15.3,29.56,West,269,0.0,3.0,14,0.00,,,0.00,Wunderground v.1.15,2013-04-16 03:42:00,
2013-04-15 21:47:00,65.4,14.9,29.57,West,269,2.0,5.0,14,0.00,,,0.00,Wunderground v.1.15,2013-04-16 03:47:00,
2013-04-15 21:52:00,64.7,15.9,29.57,West,280,4.0,4.0,15,0.00,,,0.00,Wunderground v.1.15,2013-04-16 03:52:00,
2013-04-15 21:57:00,64.0,15.4,29.57,WNW,282,4.0,4.0,15,0.00,,,0.00,Wunderground v.1.15,2013-04-16 03:57:00,
2013-04-15 22:00:00,63.8,15.2,29.57,WNW,283,3.0,4.0,15,0.00,,,0.00,Wunderground v.1.15,2013-04-16 04:00:00,
2013-04-15 22:01:00,63.7,15.1,29.57,WNW,283,3.0,4.0,15,0.00,,,0.00,Wunderground v.1.15,2013-04-16 04:01:00,
2013-04-15 22:06:00,63.4,16.4,29.58,WNW,282,2.0,4.0,16,0.00,,,0.00,Wunderground v.1.15,2013-04-16 04:06:00,
2013-04-15 22:11:00,62.8,17.3,29.58,WNW,283,1.0,3.0,17,0.00,,,0.00,Wunderground v.1.15,2013-04-16 04:11:00,
2013-04-15 22:17:00,62.0,16.6,29.58,WNW,282,1.0,3.0,17,0.00,,,0.00,Wunderground v.1.15,2013-04-16 04:17:00,
2013-04-15 22:22:00,61.1,17.2,29.58,WNW,283,0.0,1.0,18,0.00,,,0.00,Wunderground v.1.15,2013-04-16 04:22:00,
2013-04-15 22:27:00,60.3,17.8,29.58,WNW,283,3.0,4.0,19,0.00,,,0.00,Wunderground v.1.15,2013-04-16 04:27:00,
2013-04-15 22:32:00,59.7,17.3,29.58,WNW,283,0.0,2.0,19,0.00,,,0.00,Wunderground v.1.15,2013-04-16 04:32:00,
2013-04-15 22:37:00,59.4,17.1,29.58,SSE,167,4.0,4.0,19,0.00,,,0.00,Wunderground v.1.15,2013-04-16 04:37:00,
2013-04-15 22:43:00,59.4,17.1,29.59,SE,144,4.0,7.0,19,0.00,,,0.00,Wunderground v.1.15,2013-04-16 04:43:00,
2013-04-15 22:48:00,60.0,17.6,29.58,SE,144,0.0,7.0,19,0.00,,,0.00,Wunderground v.1.15,2013-04-16 04:48:00,
2013-04-15 22:53:00,60.0,17.6,29.59,SE,144,2.0,3.0,19,0.00,,,0.00,Wunderground v.1.15,2013-04-16 04:53:00,
2013-04-15 22:58:00,59.8,17.4,29.59,SE,144,0.0,3.0,19,0.00,,,0.00,Wunderground v.1.15,2013-04-16 04:58:00,
2013-04-15 23:03:00,59.4,17.1,29.59,SE,144,0.0,1.0,19,0.00,,,0.00,Wunderground v.1.15,2013-04-16 05:03:00,
2013-04-15 23:08:00,58.8,17.8,29.59,SE,144,0.0,1.0,20,0.00,,,0.00,Wunderground v.1.15,2013-04-16 05:08:00,
2013-04-15 23:13:00,58.2,17.3,29.59,SE,145,0.0,0.0,20,0.00,,,0.00,Wunderground v.1.15,2013-04-16 05:13:00,
2013-04-15 23:18:00,57.7,19.1,29.59,SE,144,0.0,0.0,22,0.00,,,0.00,Wunderground v.1.15,2013-04-16 05:18:00,
2013-04-15 23:23:00,57.3,18.7,29.59,SE,144,3.0,3.0,22,0.00,,,0.00,Wunderground v.1.15,2013-04-16 05:23:00,
2013-04-15 23:28:00,56.8,18.3,29.59,SSE,155,4.0,5.0,22,0.00,,,0.00,Wunderground v.1.15,2013-04-16 05:28:00,
2013-04-15 23:33:00,56.5,17.0,29.59,South,173,5.0,6.0,21,0.00,,,0.00,Wunderground v.1.15,2013-04-16 05:33:00,
2013-04-15 23:38:00,56.6,15.9,29.59,South,171,6.0,7.0,20,0.00,,,0.00,Wunderground v.1.15,2013-04-16 05:38:00,
2013-04-15 23:43:00,57.4,15.4,29.59,South,176,5.0,7.0,19,0.00,,,0.00,Wunderground v.1.15,2013-04-16 05:43:00,
2013-04-15 23:48:00,58.2,14.8,29.59,South,190,2.0,9.0,18,0.00,,,0.00,Wunderground v.1.15,2013-04-16 05:48:00,
2013-04-15 23:53:00,58.8,14.0,29.59,SSE,156,7.0,9.0,17,0.00,,,0.00,Wunderground v.1.15,2013-04-16 05:53:00,
2013-04-15 23:58:00,59.5,14.6,29.59,South,173,7.0,9.0,17,0.00,,,0.00,Wunderground v.1.15,2013-04-16 05:58:00,